Location: Newark
(42.8481°N, 0.4872°E)
Time: 16:53:03
(UTC+00:00)

A-11 Canister half - Pass Details

Date: 04 November 2020
Orbit: 1525 x 1683 km, 47.3° (Epoch: 22 November)

Event Time Altitude Azimuth Distance (km) Brightness Sun altitude
Rises 09:39:46 0° 175° (S) 4,867 12.6 25.2°
Reaches altitude 10° 09:44:50 10° 154° (SSE) 3,855 13.0 25.7°
Maximum altitude 09:49:40 15° 124° (SE) 3,446 12.2 26.2°
Drops below altitude 10° 09:54:26 10° 93° (E) 3,800 11.6 26.6°
Sets 09:59:18 0° 72° (ENE) 4,757 11.7 27.0°
